KLM648 DTTJ-LICR

Flight info

Callsign KLM648
Flight time 0h 57m
Altitude 36000
Route TRIFA DCT LIRMI UG362 RALAK P623 DOKIK DCT ARFOL DCT BERMI
Aircraft B738/M-SDE2E3FGIJ1RWYZ/LB1

Departure

Time 2026-04-28 12:28
Airport Djerba Zarzis International Airport (DTTJ)

Arrival

Time 2026-04-28 13:26
Airport Reggio Calabria Airport (LICR)
Time Latitude Longitude Altitude Speed Heading
2026-04-28 12:21 33.87162 10.77286 21 ft 0 kts 147°
2026-04-28 12:22 33.87172 10.77279 21 ft 3 kts 146°
2026-04-28 12:22 33.87188 10.77265 21 ft 3 kts 144°
2026-04-28 12:23 33.87203 10.77251 21 ft 2 kts 136°
2026-04-28 12:23 33.87210 10.77241 23 ft 1 kts 115°
2026-04-28 12:23 33.87213 10.77231 24 ft 1 kts 81°
2026-04-28 12:23 33.87210 10.77221 24 ft 1 kts 58°
2026-04-28 12:24 33.87205 10.77213 24 ft 1 kts 49°
2026-04-28 12:24 33.87200 10.77206 24 ft 1 kts 45°
2026-04-28 12:24 33.87194 10.77198 23 ft 1 kts 44°
2026-04-28 12:24 33.87191 10.77196 23 ft 0 kts 43°
2026-04-28 12:25 33.87206 10.77212 24 ft 7 kts 43°
2026-04-28 12:25 33.87253 10.77247 22 ft 10 kts 15°
2026-04-28 12:25 33.87337 10.77257 21 ft 13 kts 339°
2026-04-28 12:26 33.87363 10.77165 21 ft 12 kts 268°
2026-04-28 12:26 33.87361 10.77063 20 ft 12 kts 269°
2026-04-28 12:26 33.87359 10.76963 20 ft 12 kts 269°
2026-04-28 12:26 33.87357 10.76856 20 ft 14 kts 269°
2026-04-28 12:27 33.87393 10.76749 19 ft 15 kts 332°
2026-04-28 12:27 33.87486 10.76730 19 ft 13 kts 358°
2026-04-28 12:27 33.87521 10.76794 19 ft 11 kts 88°
2026-04-28 12:27 33.87529 10.77064 20 ft 68 kts 88°
2026-04-28 12:28 33.87550 10.77916 23 ft 133 kts 87°
2026-04-28 12:28 33.87582 10.79214 293 ft 167 kts 86°
2026-04-28 12:28 33.87823 10.80638 934 ft 180 kts 64°
2026-04-28 12:28 33.88672 10.81819 1675 ft 197 kts 37°
2026-04-28 12:29 33.91460 10.82714 2968 ft 221 kts 17°
2026-04-28 12:29 33.92943 10.83286 3836 ft 224 kts 35°
2026-04-28 12:29 33.94202 10.84496 4324 ft 245 kts 46°
2026-04-28 12:30 33.95511 10.85968 4825 ft 265 kts 46°
2026-04-28 12:30 33.96866 10.87504 5619 ft 272 kts 45°
2026-04-28 12:30 33.98272 10.89093 6425 ft 279 kts 44°
2026-04-28 12:30 33.99702 10.90701 7246 ft 283 kts 44°
2026-04-28 12:31 34.01140 10.92314 8052 ft 287 kts 43°
2026-04-28 12:31 34.02617 10.93970 8854 ft 294 kts 43°
2026-04-28 12:31 34.04129 10.95661 9706 ft 298 kts 43°
2026-04-28 12:31 34.05661 10.97376 10449 ft 305 kts 42°
2026-04-28 12:32 34.07281 10.99187 10705 ft 331 kts 42°
2026-04-28 12:32 34.09036 11.01151 10896 ft 356 kts 42°
2026-04-28 12:32 34.10903 11.03241 11250 ft 373 kts 42°
2026-04-28 12:32 34.12821 11.05392 11893 ft 380 kts 41°
2026-04-28 12:33 34.14769 11.07576 12638 ft 384 kts 41°
2026-04-28 12:33 34.16738 11.09786 13416 ft 387 kts 41°
2026-04-28 12:33 34.18720 11.12010 14089 ft 391 kts 41°
2026-04-28 12:33 34.20722 11.14263 14757 ft 395 kts 41°
2026-04-28 12:34 34.22741 11.16537 15429 ft 398 kts 41°
2026-04-28 12:34 34.24777 11.18832 16095 ft 401 kts 40°
2026-04-28 12:34 34.26820 11.21148 16736 ft 405 kts 40°
2026-04-28 12:34 34.28857 11.23464 17371 ft 409 kts 40°
2026-04-28 12:35 34.30961 11.25859 18021 ft 412 kts 40°
2026-04-28 12:35 34.33033 11.28219 18586 ft 416 kts 40°
2026-04-28 12:35 34.35153 11.30633 19096 ft 420 kts 39°
2026-04-28 12:35 34.37288 11.33063 19609 ft 424 kts 39°
2026-04-28 12:36 34.39457 11.35506 20138 ft 427 kts 39°
2026-04-28 12:36 34.41651 11.37962 20653 ft 431 kts 39°
2026-04-28 12:36 34.43862 11.40437 21172 ft 435 kts 39°
2026-04-28 12:36 34.46088 11.42934 21667 ft 438 kts 39°
2026-04-28 12:37 34.48334 11.45460 22152 ft 442 kts 39°
2026-04-28 12:37 34.50602 11.48013 22634 ft 445 kts 39°
2026-04-28 12:37 34.52791 11.50708 23102 ft 453 kts 46°
2026-04-28 12:37 34.54661 11.53764 23549 ft 459 kts 51°
2026-04-28 12:38 34.56464 11.56980 23907 ft 464 kts 52°
2026-04-28 12:38 34.58262 11.60257 24220 ft 469 kts 52°
2026-04-28 12:38 34.60075 11.63570 24540 ft 473 kts 52°
2026-04-28 12:38 34.61916 11.66916 24866 ft 477 kts 52°
2026-04-28 12:39 34.63775 11.70273 25200 ft 481 kts 52°
2026-04-28 12:39 34.65660 11.73658 25532 ft 485 kts 52°
2026-04-28 12:39 34.67562 11.77064 25850 ft 489 kts 52°
2026-04-28 12:39 34.69484 11.80498 26157 ft 493 kts 52°
2026-04-28 12:40 34.71419 11.83959 26477 ft 496 kts 51°
2026-04-28 12:40 34.73363 11.87438 26792 ft 499 kts 51°
2026-04-28 12:40 34.75328 11.90960 27103 ft 503 kts 51°
2026-04-28 12:40 34.77268 11.94441 27397 ft 506 kts 51°
2026-04-28 12:41 34.79246 11.97995 27702 ft 509 kts 51°
2026-04-28 12:41 34.81243 12.01588 28003 ft 512 kts 51°
2026-04-28 12:41 34.83244 12.05191 28289 ft 515 kts 51°
2026-04-28 12:41 34.85252 12.08810 28567 ft 518 kts 51°
2026-04-28 12:42 34.87274 12.12458 28839 ft 521 kts 51°
2026-04-28 12:42 34.89307 12.16131 29105 ft 524 kts 51°
2026-04-28 12:42 34.91347 12.19819 29388 ft 526 kts 51°
2026-04-28 12:42 34.92705 12.22277 29621 ft 527 kts 51°
2026-04-28 12:43 34.94748 12.25981 30033 ft 527 kts 51°
2026-04-28 12:43 34.96794 12.29692 30399 ft 526 kts 51°
2026-04-28 12:43 34.98831 12.33392 30718 ft 526 kts 51°
2026-04-28 12:43 35.00873 12.37103 31011 ft 527 kts 51°
2026-04-28 12:44 35.02917 12.40821 31307 ft 528 kts 51°
2026-04-28 12:44 35.04965 12.44550 31635 ft 528 kts 51°
2026-04-28 12:44 35.07007 12.48272 31954 ft 528 kts 51°
2026-04-28 12:44 35.09052 12.52002 32249 ft 529 kts 51°
2026-04-28 12:45 35.11097 12.55738 32541 ft 530 kts 52°
2026-04-28 12:45 35.13150 12.59490 32839 ft 531 kts 52°
2026-04-28 12:45 35.15199 12.63242 33122 ft 531 kts 52°
2026-04-28 12:45 35.17255 12.67010 33430 ft 531 kts 52°
2026-04-28 12:46 35.19277 12.70719 33725 ft 531 kts 52°
2026-04-28 12:46 35.21327 12.74484 34003 ft 532 kts 52°
2026-04-28 12:46 35.23384 12.78266 34278 ft 532 kts 52°
2026-04-28 12:46 35.25424 12.82022 34677 ft 528 kts 51°
2026-04-28 12:47 35.27443 12.85746 35121 ft 523 kts 51°
2026-04-28 12:47 35.29446 12.89442 35510 ft 520 kts 51°
2026-04-28 12:47 35.31438 12.93122 35830 ft 518 kts 51°
2026-04-28 12:47 35.33428 12.96797 36045 ft 518 kts 51°
2026-04-28 12:48 35.35432 13.00498 36025 ft 523 kts 51°
2026-04-28 12:48 35.39466 13.07970 36041 ft 524 kts 51°
2026-04-28 12:49 35.43469 13.15410 36040 ft 521 kts 51°
2026-04-28 12:49 35.47596 13.22611 36028 ft 512 kts 43°
2026-04-28 12:50 35.52727 13.28442 36039 ft 499 kts 32°
2026-04-28 12:50 35.58076 13.33870 36033 ft 498 kts 32°
2026-04-28 12:51 35.63395 13.39322 36037 ft 497 kts 33°
2026-04-28 12:51 35.68639 13.44780 36046 ft 497 kts 33°
2026-04-28 12:52 35.73908 13.50303 36045 ft 496 kts 33°
2026-04-28 12:52 35.79165 13.55824 36044 ft 496 kts 33°
2026-04-28 12:53 35.84412 13.61340 36048 ft 495 kts 33°
2026-04-28 12:53 35.89653 13.66858 36050 ft 495 kts 33°
2026-04-28 12:54 35.94857 13.72348 36053 ft 494 kts 33°
2026-04-28 12:54 36.00085 13.77871 36058 ft 494 kts 33°
2026-04-28 12:55 36.05286 13.83377 36058 ft 493 kts 33°
2026-04-28 12:55 36.10502 13.88909 36063 ft 492 kts 33°
2026-04-28 12:56 36.15693 13.94424 36065 ft 492 kts 33°
2026-04-28 12:56 36.20877 13.99942 36067 ft 491 kts 33°
2026-04-28 12:57 36.26060 14.05468 36062 ft 491 kts 33°
2026-04-28 12:57 36.31194 14.10953 36067 ft 490 kts 33°
2026-04-28 12:58 36.36358 14.16479 36070 ft 490 kts 33°
2026-04-28 12:58 36.41523 14.22017 36069 ft 490 kts 33°
2026-04-28 12:59 36.46671 14.27547 36071 ft 489 kts 33°
2026-04-28 12:59 36.51820 14.33087 36069 ft 489 kts 33°
2026-04-28 13:00 36.56958 14.38626 36070 ft 488 kts 33°
2026-04-28 13:00 36.62084 14.44162 36079 ft 488 kts 34°
2026-04-28 13:01 36.67213 14.49711 36082 ft 488 kts 34°
2026-04-28 13:01 36.72338 14.55267 36081 ft 488 kts 34°
2026-04-28 13:02 36.77458 14.60829 36067 ft 488 kts 34°
2026-04-28 13:02 36.82574 14.66390 35393 ft 494 kts 34°
2026-04-28 13:02 36.85194 14.69151 34757 ft 490 kts 32°
2026-04-28 13:03 36.87848 14.71833 34029 ft 491 kts 31°
2026-04-28 13:03 36.90524 14.74487 33213 ft 491 kts 31°
2026-04-28 13:03 36.93206 14.77143 32441 ft 492 kts 31°
2026-04-28 13:03 36.95888 14.79811 31647 ft 492 kts 32°
2026-04-28 13:04 36.98563 14.82492 30886 ft 493 kts 32°
2026-04-28 13:04 37.01214 14.85168 30340 ft 488 kts 32°
2026-04-28 13:04 37.03835 14.87825 29733 ft 483 kts 33°
2026-04-28 13:04 37.06401 14.90430 29120 ft 478 kts 33°
2026-04-28 13:05 37.08971 14.93042 28551 ft 472 kts 33°
2026-04-28 13:05 37.11507 14.95621 27989 ft 466 kts 33°
2026-04-28 13:05 37.14008 14.98163 27432 ft 461 kts 34°
2026-04-28 13:05 37.16491 15.00688 26851 ft 457 kts 34°
2026-04-28 13:06 37.18944 15.03185 26320 ft 452 kts 34°
2026-04-28 13:06 37.21259 15.05541 25793 ft 448 kts 34°
2026-04-28 13:06 37.23671 15.07999 25270 ft 444 kts 34°
2026-04-28 13:06 37.26053 15.10430 24737 ft 440 kts 35°
2026-04-28 13:07 37.28422 15.12847 24215 ft 437 kts 35°
2026-04-28 13:07 37.30771 15.15247 23670 ft 434 kts 36°
2026-04-28 13:07 37.33103 15.17633 23049 ft 431 kts 36°
2026-04-28 13:07 37.35419 15.20006 22481 ft 427 kts 36°
2026-04-28 13:08 37.37705 15.22350 21942 ft 422 kts 36°
2026-04-28 13:08 37.39972 15.24676 21415 ft 418 kts 36°
2026-04-28 13:08 37.42212 15.26975 20897 ft 414 kts 36°
2026-04-28 13:08 37.44408 15.29230 20386 ft 410 kts 36°
2026-04-28 13:09 37.46611 15.31494 19877 ft 407 kts 36°
2026-04-28 13:09 37.48800 15.33746 19381 ft 403 kts 37°
2026-04-28 13:09 37.51033 15.35848 18831 ft 398 kts 27°
2026-04-28 13:09 37.53559 15.37265 18157 ft 397 kts 19°
2026-04-28 13:10 37.56135 15.38499 17534 ft 395 kts 18°
2026-04-28 13:10 37.58688 15.39716 17000 ft 391 kts 19°
2026-04-28 13:10 37.61212 15.40946 16472 ft 387 kts 19°
2026-04-28 13:10 37.63713 15.42190 15967 ft 384 kts 19°
2026-04-28 13:11 37.66183 15.43437 15467 ft 380 kts 20°
2026-04-28 13:11 37.68631 15.44678 14972 ft 377 kts 20°
2026-04-28 13:11 37.71024 15.45894 14487 ft 374 kts 20°
2026-04-28 13:11 37.73336 15.47404 13974 ft 375 kts 32°
2026-04-28 13:12 37.75461 15.49288 13431 ft 372 kts 34°
2026-04-28 13:12 37.77549 15.51200 12913 ft 369 kts 34°
2026-04-28 13:12 37.79637 15.53074 12400 ft 366 kts 33°
2026-04-28 13:12 37.81718 15.54900 11917 ft 362 kts 33°
2026-04-28 13:13 37.83784 15.56697 11429 ft 359 kts 32°
2026-04-28 13:13 37.85924 15.58280 10941 ft 354 kts 18°
2026-04-28 13:13 37.88250 15.59034 10824 ft 338 kts 10°
2026-04-28 13:13 37.90363 15.59612 10669 ft 328 kts 10°
2026-04-28 13:14 37.92560 15.60213 10523 ft 318 kts 10°
2026-04-28 13:14 37.94683 15.60804 10395 ft 308 kts 10°
2026-04-28 13:14 37.96742 15.61386 10257 ft 299 kts 10°
2026-04-28 13:14 37.98738 15.61955 10141 ft 290 kts 10°
2026-04-28 13:15 38.00664 15.62508 9936 ft 287 kts 11°
2026-04-28 13:15 38.02611 15.63068 9617 ft 285 kts 11°
2026-04-28 13:15 38.04541 15.63626 9347 ft 284 kts 11°
2026-04-28 13:15 38.06465 15.64182 9008 ft 283 kts 11°
2026-04-28 13:16 38.08376 15.64750 8731 ft 282 kts 12°
2026-04-28 13:16 38.10270 15.65402 8423 ft 281 kts 13°
2026-04-28 13:16 38.12150 15.66070 8139 ft 280 kts 13°
2026-04-28 13:16 38.14025 15.66732 7858 ft 280 kts 13°
2026-04-28 13:17 38.15897 15.67386 7683 ft 276 kts 14°
2026-04-28 13:17 38.17727 15.68026 7549 ft 270 kts 14°
2026-04-28 13:17 38.19504 15.68648 7435 ft 264 kts 14°
2026-04-28 13:17 38.21258 15.69258 7300 ft 259 kts 14°
2026-04-28 13:18 38.22997 15.69844 7135 ft 255 kts
2026-04-28 13:18 38.24727 15.69653 6911 ft 249 kts 341°
2026-04-28 13:18 38.26345 15.68896 6632 ft 249 kts 336°
2026-04-28 13:18 38.27944 15.68054 6366 ft 249 kts 336°
2026-04-28 13:19 38.29431 15.66970 6080 ft 246 kts 313°
2026-04-28 13:19 38.30317 15.65155 5830 ft 242 kts 284°
2026-04-28 13:19 38.30416 15.63065 5559 ft 234 kts 258°
2026-04-28 13:19 38.29942 15.61122 5328 ft 226 kts 247°
2026-04-28 13:20 38.29354 15.59307 5118 ft 217 kts 246°
2026-04-28 13:20 38.28783 15.57575 4866 ft 206 kts 246°
2026-04-28 13:20 38.28216 15.55965 4651 ft 199 kts 234°
2026-04-28 13:20 38.27174 15.54853 4418 ft 192 kts 203°
2026-04-28 13:21 38.25881 15.54620 4148 ft 190 kts 175°
2026-04-28 13:21 38.24584 15.54750 3855 ft 188 kts 176°
2026-04-28 13:21 38.23264 15.54887 3503 ft 191 kts 174°
2026-04-28 13:21 38.22047 15.55402 3278 ft 181 kts 150°
2026-04-28 13:22 38.20977 15.56154 3119 ft 172 kts 153°
2026-04-28 13:22 38.19946 15.56871 2896 ft 162 kts 154°
2026-04-28 13:22 38.18962 15.57491 2732 ft 157 kts 156°
2026-04-28 13:22 38.18009 15.58088 2487 ft 149 kts 155°
2026-04-28 13:23 38.17117 15.58658 2263 ft 138 kts 155°
2026-04-28 13:23 38.16284 15.59193 2116 ft 134 kts 155°
2026-04-28 13:23 38.15444 15.59736 1898 ft 136 kts 156°
2026-04-28 13:23 38.14586 15.60292 1735 ft 141 kts 156°
2026-04-28 13:24 38.13703 15.60862 1523 ft 142 kts 156°
2026-04-28 13:24 38.12851 15.61416 1260 ft 133 kts 156°
2026-04-28 13:24 38.12049 15.61935 1105 ft 130 kts 157°
2026-04-28 13:24 38.11219 15.62474 921 ft 136 kts 157°
2026-04-28 13:25 38.10385 15.63026 685 ft 133 kts 154°
2026-04-28 13:25 38.09571 15.63575 533 ft 133 kts 157°
2026-04-28 13:25 38.08740 15.64109 317 ft 134 kts 158°
2026-04-28 13:25 38.07917 15.64645 100 ft 131 kts 158°
2026-04-28 13:26 38.07210 15.65097 57 ft 76 kts 152°
2026-04-28 13:26 38.07068 15.65286 54 ft 21 kts 108°
2026-04-28 13:26 38.07045 15.65388 51 ft 11 kts 90°
2026-04-28 13:26 38.07107 15.65409 51 ft 13 kts 333°
2026-04-28 13:27 38.07148 15.65377 51 ft 2 kts 330°
2026-04-28 13:27 38.07171 15.65361 54 ft 6 kts 330°
2026-04-28 13:27 38.07214 15.65332 52 ft 8 kts 334°
2026-04-28 13:27 38.07269 15.65295 54 ft 9 kts 332°
2026-04-28 13:28 38.07326 15.65256 58 ft 9 kts 332°
2026-04-28 13:28 38.07377 15.65223 60 ft 8 kts 335°
2026-04-28 13:28 38.07401 15.65216 57 ft 3 kts
2026-04-28 13:28 38.07413 15.65237 60 ft 4 kts 71°
2026-04-28 13:29 38.07415 15.65255 59 ft 0 kts 81°